Air Resources Laboratory banner image
Air Resources Laboratory web site National Oceanic and Atmospheric Administration (NOAA)

mt roundup


Office: TFX

ASUS45 KTFX 191610
RWRMT
MONTANA REGIONAL WEATHER ROUNDUP
NATIONAL WEATHER SERVICE GREAT FALLS MT
900 AM MST MON FEB 19 2018

NOTE: "FAIR" INDICATES FEW OR NO CLOUDS BELOW 12000 FEET WITH NO
SIGNIFICANT WEATHER AND/OR OBSTRUCTIONS TO VISIBILITY.

MTZ001>007-043-191700-
WEST OF THE DIVIDE

CITY           SKY/WX    TMP DP  RH WIND       PRES   REMARKS
KALISPELL      PTSUNNY    4  -8  57 NE14      30.02R WCI -14
MISSOULA       CLOUDY     4  -7  60 SE18      29.98S WCI -16
BUTTE          PTSUNNY  -18 -23  77 E3        29.77S
MULLAN PASS    CLOUDY    -5  -9  83 VRB5      29.64R
ANACONDA         N/A     -6 -13  71 CALM      29.84S
DEER LODGE       N/A     -6 -11  77 N3        29.89R
HAMILTON         N/A      3  -2  78 MISG      29.93S
PLAINS           N/A      8  -5  55 CALM      30.03R
RONAN            N/A      1  -4  78 CALM      30.00S
$$

MTZ008-052>055-191700-
SOUTHWEST MONTANA

CITY           SKY/WX    TMP DP  RH WIND       PRES   REMARKS
BOZEMAN        CLOUDY    -6 -13  71 CALM      29.89S HAZE
DILLON         FAIR     -11 -11 100 E9        29.76S WCI -29
ENNIS          CLOUDY    -9 -15  77 CALM      29.80R
W YELLOWSTONE  CLOUDY    -2  -9  71 NE3       29.54S
THREE FORKS      N/A     -2 -11  65 NW5       29.90R
TWIN BRIDGES     N/A     -6 -18  56 N12       29.80S WCI -25
$$

MTZ009-010-012-014-046-048-049-054-191700-
EAST SLOPES AND CENTRAL MONTANA

CITY           SKY/WX    TMP DP  RH WIND       PRES   REMARKS
CUT BANK       CLOUDY    -7 -11  83 NW5       29.99F
GREAT FALLS    CLOUDY    -6 -11  79 W3        30.02S HAZE
MALMSTROM AFB  FLURRIES  -7 -10  86 S3        30.05F
HELENA         FAIR      -3 -12  65 W8        29.97F WCI -18
AUGUSTA        FLURRIES  -7 -11  83 N5        29.93S
BOWMANS CRNR   SNOWSHWR  -7 -11  81 CALM      29.92F
CONRAD           N/A     -3  -9  75 W5        30.04S
FAIRFIELD      LGT SNOW  -5 -11  75 CALM      29.99S FOG
POWER          SNOWSHWR  -6 -11  80 N5        30.00S
RAYNESFORD     FLURRIES  -7 -12  78 CALM      29.98F
ULM            LGT SNOW  -9 -12  84 CALM      30.03F
WHITE SULPHUR    N/A    -11 -17  77 CALM      29.83S
$$

MTZ011-013-016-021-045-047-050-051-191700-
NORTH CENTRAL MONTANA

CITY           SKY/WX    TMP DP  RH WIND       PRES   REMARKS
HAVRE          LGT SNOW  -5  -9  83 W5        30.14F FOG
LEWISTOWN      CLOUDY    -7  -9  91 W3        29.95F FOG
N BAR RANCH    CLOUDY    -4 -11  71 CALM      29.93F
CHINOOK          N/A     -6 -11  77 CALM      30.18S
GEYSER         LGT SNOW  -6 -10  81 SW8       29.96F WCI -21
STANFORD       LGT SNOW  -5  -9  84 NW5       29.92F
WINIFRED       LGT SNOW  -5  -8  84 W5        30.00F FOG
$$

MTZ017>020-022>027-061-062-191700-
NORTHEAST MONTANA

CITY           SKY/WX    TMP DP  RH WIND       PRES   REMARKS
GLASGOW        LGT SNOW  -5 -10  79 N7        30.15F WCI -19
GLENDIVE       CLOUDY     0  -4  83 CALM      30.15R
JORDAN           N/A      1  -4  79 N8        30.10S WCI -13
MALTA          MOSUNNY   -8 -13  77 CALM      30.17S HAZE
SIDNEY         FAIR      -2  -6  83 CALM      30.20S
WOLF POINT     CLOUDY    -6 -10  83 CALM      30.21R FOG
PLENTYWOOD       N/A     -9 -13  84 NW5       30.16S
POPLAR           N/A     -8 -11  84 CALM      30.21S
SCOBEY           N/A    -17 -27  60 W1        30.11F
$$

MTZ028>42-056>058-191700-
SOUTHCENTRAL AND SOUTHEAST MONTANA

CITY           SKY/WX    TMP DP  RH WIND       PRES   REMARKS
BAKER          CLOUDY     1  -4  79 SE9       30.08R WCI -14
BILLINGS       LGT SNOW  -1  -5  82 N9        29.98F FOG     WCI -16
LIVINGSTON     PTSUNNY   -6  -9  86 E9        29.87R WCI -23
MILES CITY     LGT SNOW   1  -3  83 NE10      30.09S FOG     WCI -15
BIG TIMBER     CLOUDY    -8 -11  84 NE5       29.94S
EKALAKA          N/A     -1  -9  69 E13       29.96S WCI -19
FORSYTH          N/A      3   0  85 CALM      30.09R
HARLOWTON      LGT SNOW  -6 -11  82 SW5       29.93S
LAUREL           N/A     -2  -8  78 N8        30.01S HAZE    WCI -17
$$

REGIONAL REPORTS...DAKOTAS

CITY           SKY/WX    TMP DP  RH WIND       PRES   REMARKS
WILLISTON      FAIR      -8 -12  83 CALM      30.21R
MINOT          FAIR      -2 -11  65 CALM      30.21S
DICKINSON      CLOUDY     1 -10  60 E6        30.11R WCI -10
BEACH          PTSUNNY    0  -4  85 CALM      30.13S
CROSBY         FAIR      -8 -13  77 SW5       30.20S
TIOGA          FAIR     -11 -15  84 CALM      30.17S
BISMARCK       CLOUDY     3  -6  66 NE8       30.21S WCI -10
GRAND FORKS    CLOUDY    -1  -8  72 N16       30.29R WCI -21
FARGO          FAIR       6  -1  73 N17       30.19F WCI -13
BUFFALO SD       N/A      2  -7  66 NE12      29.98R WCI -15
RAPID CITY     LGT SNOW   2  -3  80 N12       30.00F VSB 1   WCI -15
$$

REGIONAL REPORTS...WYOMING/IDAHO/WASHINGTON

CITY           SKY/WX    TMP DP  RH WIND       PRES   REMARKS
GILLETTE       LGT SNOW  -1  -6  79 N9        29.85S VSB 3/4 WCI -16
SHERIDAN       LGT SNOW   1  -4  79 CALM      29.92S VSB 1
BUFFALO WY     LGT SNOW  -1  -6  79 N6        29.81S WCI -13
CODY           FAIR      -5 -12  72 NE9       29.80R WCI -22
YELLOWSTONE LA   N/A     -1  -5  82 CALM      29.44F
IDAHO FALLS    FLURRIES  14   3  61 N13       29.60R WCI   0
SALMON         CLOUDY    10   0  63 N8        29.81R WCI  -2
BOISE          CLOUDY    25  20  81 NW10      29.75R WCI  15
SPOKANE        PTSUNNY    9  -2  61 NE14      29.99R WCI  -7
$$

REGIONAL REPORTS...ALBERTA

CITY           SKY/WX    TMP DP  RH WIND       PRES   REMARKS
CARDSTON         N/A     -8 -13  77 S1          N/A
EDMONTON       PTCLDY     3  -9  55 W13       29.99F WCI -14
FORT MCMURRAY  FLURRIES   5   0  78 W10       29.87  WCI -10
HIGH LEVEL     PTCLDY    14   1  57 W7        29.88R WCI   4
LETHBRIDGE     PTSUNNY  -11 -17  77 SW10      30.07S WCI -30
LLOYDMINSTER   MOSUNNY   -4  -9  77 SW16      30.00F WCI -25
MEDICINE HAT   PTSUNNY   -9 -15  77 SW8       30.15R WCI -26
MILK RIVER       N/A     -9 -13  84 NW7         N/A  WCI -24
PEACE RIVER    MOCLDY     9  -4  56 W12       29.95S WCI  -6
PINCHER CREEK  MOSUNNY  -18 -24  76 W6        29.99S WCI -33
WATERTON GATE    N/A    -20 -27  69 E1          N/A
$$

REGIONAL REPORTS...SASKATCHEWAN

CITY           SKY/WX    TMP DP  RH WIND       PRES   REMARKS
CORONACH         N/A    -13 -18  77 CALM        N/A
CYPRESS HILLS    N/A     -8 -13  77 W2          N/A
ESTEVAN        CLOUDY   -13 -18  77 W6        30.19F WCI -27
MOOSE JAW        N/A     -4  -9  77 W5          N/A
PRINCE ALBERT  SUNNY    -22 -29  69 CALM      30.13S
REGINA         MOSUNNY  -15 -20  76 S5        30.18F
ROCKGLEN         N/A     -4  -8  84 CALM        N/A
SASKATOON      MOSUNNY  -15 -20  76 SW9       30.16R WCI -33
SWIFT CURRENT  SUNNY     -9 -15  77 SW8       30.07  WCI -26
VAL MARIE        N/A    -17 -22  76 NW1         N/A
$$